[[{"header":{"parameterUnit":"m.s-1","parameterCategory":1,"la1":30.2991,"la2":30.254,"lo1":-89.0895,"lo2":-89.0444,"dy":0.0017,"dx":0.0017,"nx":28,"ny":28,"refTime":"2024-07-14T21:00:00:Z","depth":0,"parameterNumber":2,"parameterNumberName":"U-component_of_WINDS"},"data":[0,0,0,0,0,0,0,0,0,0,0,0,0,0,0,0,0,0,0,0,0,0,0,0,0,0,0,0,0,0,0,0,0,0,0,0,0,0,0,0,0,0,0,0,0,0,0,0,0,0,0,0,0,0,0,0,0,0,-0.0605,-0.0605,0,-0.0559,-0.0559,-0.0558,-0.0563,-0.0563,-0.0564,-0.0565,-0.0511,-0.0509,-0.0507,0,0,0,0,0,0,0,0,0,0,0,0,0,-0.069,-0.0689,-0.0605,-0.0605,-0.0604,-0.0559,-0.0559,-0.0558,-0.0562,-0.0563,-0.0564,-0.0565,-0.0512,-0.051,-0.0507,0,0,0,0,0,0,0,0,0,0,0,0,0,-0.0649,-0.0688,-0.0606,-0.0601,-0.06,-0.0559,-0.0559,-0.0558,-0.0562,-0.0563,-0.0564,-0.0566,-0.0513,-0.051,-0.0507,-0.0465,0,0,-0.0497,-0.0496,0,0,0,0,0,0,0,0,-0.0652,-0.0646,-0.0602,-0.0601,-0.0601,-0.0568,-0.0569,-0.0526,-0.0562,-0.0577,-0.0565,-0.0566,-0.0529,-0.0525,-0.0513,-0.0463,-0.046,-0.0497,-0.0495,-0.0494,-0.0493,0,0,0,0,0,0,0,-0.0655,-0.0648,-0.0587,-0.0602,-0.0601,-0.0599,-0.0595,-0.0561,-0.0547,-0.0575,-0.0576,-0.057,-0.0529,-0.0516,-0.0512,-0.046,-0.0497,-0.0494,-0.0492,-0.0491,-0.0368,-0.0366,0,0,0,0,0,0,-0.0659,-0.0651,-0.0588,-0.0586,-0.063,-0.0597,-0.0592,-0.0577,-0.0547,-0.0544,-0.057,-0.0571,-0.0521,-0.0516,-0.051,-0.0456,-0.0494,-0.0491,-0.0489,-0.0369,-0.0367,-0.0366,0,0,0,0,0,0,-0.0661,-0.0654,-0.059,-0.0618,-0.061,-0.0594,-0.0578,-0.0576,-0.0563,-0.0543,-0.054,-0.056,-0.0522,-0.0515,-0.0476,-0.0455,-0.0489,-0.0486,-0.0371,-0.0368,-0.0367,-0.0351,0,0,0,0,0,0,-0.0664,-0.0655,-0.0641,-0.0618,-0.0609,-0.0559,-0.0577,-0.0574,-0.0559,-0.056,-0.0533,-0.053,-0.0522,-0.048,-0.0473,-0.0451,-0.0484,-0.0372,-0.037,-0.0367,-0.0353,-0.0348,-0.0344,0,0,0,0,0,-0.0667,-0.0637,-0.064,-0.0632,-0.0591,-0.0558,-0.0552,-0.0546,-0.0557,-0.0541,-0.0527,-0.0531,-0.0459,-0.0476,-0.0468,-0.0445,-0.0374,-0.037,-0.0367,-0.0355,-0.0349,-0.0344,0,0,0,0,0,0,-0.0657,-0.0635,-0.0637,-0.06,-0.0581,-0.0559,-0.0539,-0.0541,-0.0516,-0.0518,-0.0509,-0.0503,-0.0463,-0.045,-0.047,-0.0401,-0.0417,-0.0412,-0.0411,-0.0405,-0.0401,-0.0404,-0.0481,0,0,0,0,0,-0.0651,-0.0628,-0.0609,-0.0578,-0.0568,-0.0555,-0.0541,-0.0537,-0.0516,-0.0507,-0.0491,-0.0469,-0.0441,-0.0422,-0.0396,-0.0351,-0.0343,-0.0331,-0.0327,-0.0323,-0.0318,-0.029,-0.0283,-0.0356,-0.0356,-0.0356,0,0,-0.0637,-0.0622,-0.0608,-0.0575,-0.056,-0.0534,-0.0548,-0.0521,-0.05,-0.0503,-0.0465,-0.0452,-0.0426,-0.0383,-0.0363,-0.0371,-0.0296,-0.0319,-0.0317,-0.0313,-0.0286,-0.0279,-0.0273,-0.0353,-0.0354,-0.0354,0,0,-0.0598,-0.0586,-0.0557,-0.0542,-0.0519,-0.051,-0.0503,-0.048,-0.0472,-0.0434,-0.0434,-0.0408,-0.0362,-0.0342,-0.0326,-0.0277,-0.0277,-0.0268,-0.0245,-0.0217,-0.0211,-0.0206,-0.0185,-0.0178,-0.0264,-0.0264,-0.0264,0,-0.0583,-0.0546,-0.0542,-0.0514,-0.0498,-0.05,-0.0469,-0.0453,-0.0422,-0.0409,-0.0419,-0.0358,-0.0341,-0.0292,-0.0279,-0.0267,-0.0256,-0.0271,-0.0213,-0.0208,-0.0203,-0.0183,-0.0175,-0.0262,-0.0263,-0.0263,-0.0263,0,-0.0528,-0.0502,-0.0481,-0.0452,-0.0433,-0.0404,-0.0392,-0.0374,-0.0371,-0.036,-0.0319,-0.0298,-0.0266,-0.0254,-0.0251,-0.0203,-0.0208,-0.0216,-0.0232,-0.0195,-0.0175,-0.0168,-0.0261,-0.0261,-0.0262,-0.0262,0,0,-0.0482,-0.045,-0.0442,-0.0427,-0.0401,-0.0379,-0.0348,-0.0318,-0.0301,-0.0278,-0.0249,-0.0208,-0.0214,-0.0195,-0.019,-0.0166,-0.0124,-0.0175,-0.0174,-0.0164,-0.0065,-0.0058,-0.005,-0.0124,-0.0123,-0.0122,-0.0066,0,-0.0438,-0.0386,-0.038,-0.0331,-0.0305,-0.0306,-0.0278,-0.0257,-0.0245,-0.0218,-0.0205,-0.0174,-0.0186,-0.0174,-0.0151,-0.0134,-0.0103,-0.0138,-0.0094,-0.0092,-0.0098,-0.004,-0.0034,0.0018,-0.0059,-0.0058,-0.0057,0,-0.0381,-0.0358,-0.0308,-0.0282,-0.0271,-0.0247,-0.0216,-0.0192,-0.0167,-0.016,-0.0138,-0.0135,-0.0098,-0.0117,-0.0065,-0.0089,-0.007,-0.0058,-0.0056,-0.005,-0.0071,-0.003,0.0034,0.0043,-0.0045,-0.0046,-0.0047,0,-0.0349,-0.0305,-0.0269,-0.0256,-0.0227,-0.0209,-0.0195,-0.0172,-0.0153,-0.0125,-0.0112,-0.0081,-0.0063,-0.0036,-0.0023,-0.0039,0.003,0.0011,0.004,0.004,0.0056,0.0055,0.0126,0.0064,0.0064,0.0064,0.0063,0,-0.03,-0.0268,-0.0254,-0.0231,-0.0194,-0.0186,-0.0148,-0.0135,-0.0113,-0.0085,-0.0083,-0.0056,-0.0041,-0.0011,-0.0,0.0044,0.0051,0.0061,0.0064,0.0062,0.0061,0.0076,0.0074,0.0066,0.0065,0.0065,0.0064,0,-0.0258,-0.0247,-0.0207,-0.0182,-0.0175,-0.0148,-0.0125,-0.0101,-0.0089,-0.0053,-0.0044,-0.0024,0.0012,0.0027,0.0072,0.008,0.0131,0.013,0.0122,0.0124,0.0153,0.0151,0.0238,0.0251,0.0177,0.0178,0.0179,0,-0.0226,-0.0202,-0.0174,-0.0157,-0.0143,-0.0114,-0.0094,-0.0084,-0.0064,-0.0031,-0.001,0.0026,0.0055,0.0113,0.0134,0.0169,0.0171,0.0199,0.0177,0.0175,0.0175,0.0175,0.0179,0.0204,0.0205,0.0205,0.0206,0,-0.017,-0.0166,-0.014,-0.011,-0.0088,-0.0064,-0.004,-0.0024,-0.001,0.0014,0.005,0.0072,0.0118,0.0156,0.0193,0.021,0.0213,0.0213,0.0222,0.0221,0.0217,0.0223,0.0136,0.0211,0.021,0.021,0.021,0.0209,-0.013,-0.0108,-0.0084,-0.0054,-0.0035,-0.0012,0.0012,0.0027,0.0057,0.0094,0.0098,0.0138,0.0167,0.0217,0.0236,0.027,0.0263,0.0276,0.0279,0.0283,0.0286,0.0209,0.0277,0.0276,0.0276,0.0276,0.0276,0,-0.0072,-0.0057,-0.0029,0.0004,0.0029,0.0025,0.0052,0.0075,0.0109,0.0134,0.0163,0.0207,0.0243,0.0267,0.0305,0.0328,0.033,0.0338,0.0338,0.0343,0.0288,0.0278,0.0336,0.0336,0.0336,0.0336,0.0336,0.0336,-0.0038,0.0001,0.0009,0.0059,0.0075,0.0112,0.0129,0.0151,0.0172,0.022,0.0249,0.0264,0.029,0.0331,0.0366,0.0372,0.0388,0.0396,0.0403,0.0352,0.0346,0.034,0.0331,0.0399,0.0399,0.0455,0.0456,0.0456]},{"header":{"parameterUnit":"m.s-1","parameterCategory":1,"la1":30.2991,"la2":30.254,"lo1":-89.0895,"lo2":-89.0444,"dy":0.0017,"dx":0.0017,"nx":28,"ny":28,"refTime":"2024-07-14T21:00:00:Z","depth":0,"parameterNumber":3,"parameterNumberName":"V-component_of_WINDS"},"data":[0,0,0,0,0,0,0,0,0,0,0,0,0,0,0,0,0,0,0,0,0,0,0,0,0,0,0,0,0,0,0,0,0,0,0,0,0,0,0,0,0,0,0,0,0,0,0,0,0,0,0,0,0,0,0,0,0,0,-0.7723,-0.7723,0,-0.7704,-0.7704,-0.7704,-0.771,-0.7711,-0.7711,-0.7711,-0.7694,-0.7693,-0.7693,0,0,0,0,0,0,0,0,0,0,0,0,0,-0.7768,-0.7767,-0.7723,-0.7723,-0.7722,-0.7704,-0.7704,-0.7704,-0.771,-0.7711,-0.7711,-0.7712,-0.7694,-0.7694,-0.7693,0,0,0,0,0,0,0,0,0,0,0,0,0,-0.7749,-0.7767,-0.7723,-0.7723,-0.7723,-0.7704,-0.7704,-0.7704,-0.771,-0.7711,-0.7711,-0.7712,-0.7695,-0.7694,-0.7692,-0.7672,0,0,-0.7689,-0.7688,0,0,0,0,0,0,0,0,-0.775,-0.7747,-0.7724,-0.7723,-0.7723,-0.771,-0.7714,-0.7693,-0.771,-0.7715,-0.7711,-0.7712,-0.7699,-0.7698,-0.7693,-0.7672,-0.7671,-0.7688,-0.7688,-0.7687,-0.7687,0,0,0,0,0,0,0,-0.7751,-0.7748,-0.7716,-0.7723,-0.7723,-0.7726,-0.7724,-0.771,-0.7704,-0.7715,-0.7715,-0.7713,-0.7699,-0.7694,-0.7692,-0.7671,-0.7688,-0.7687,-0.7687,-0.7686,-0.7634,-0.7634,0,0,0,0,0,0,-0.7752,-0.7749,-0.7716,-0.7715,-0.7738,-0.7724,-0.7722,-0.7714,-0.7704,-0.7703,-0.7712,-0.7713,-0.7696,-0.7694,-0.7692,-0.7669,-0.7687,-0.7686,-0.7685,-0.7635,-0.7634,-0.7633,0,0,0,0,0,0,-0.7753,-0.7749,-0.7717,-0.7732,-0.7728,-0.7723,-0.7714,-0.7713,-0.7708,-0.7702,-0.7702,-0.7708,-0.7696,-0.7694,-0.7678,-0.7668,-0.7685,-0.7684,-0.7636,-0.7635,-0.7634,-0.7622,0,0,0,0,0,0,-0.7754,-0.7749,-0.7741,-0.7732,-0.7727,-0.7702,-0.7713,-0.7712,-0.7705,-0.7706,-0.7698,-0.7697,-0.7696,-0.7679,-0.7676,-0.7667,-0.7683,-0.7636,-0.7635,-0.7634,-0.7623,-0.7621,-0.7619,0,0,0,0,0,-0.7756,-0.7738,-0.774,-0.7736,-0.7716,-0.7701,-0.7699,-0.7698,-0.7705,-0.7697,-0.7693,-0.7697,-0.767,-0.7678,-0.7674,-0.7664,-0.7637,-0.7636,-0.7634,-0.7624,-0.7621,-0.7619,0,0,0,0,0,0,-0.7746,-0.7737,-0.7739,-0.7718,-0.771,-0.7702,-0.7692,-0.7695,-0.7685,-0.7687,-0.7687,-0.7685,-0.7668,-0.7665,-0.7674,-0.7646,-0.7655,-0.7652,-0.7648,-0.7645,-0.7643,-0.7644,-0.7682,0,0,0,0,0,-0.7742,-0.7729,-0.7722,-0.7704,-0.77,-0.7697,-0.769,-0.769,-0.7683,-0.768,-0.7675,-0.7668,-0.7659,-0.7652,-0.7642,-0.7623,-0.7622,-0.7615,-0.7613,-0.7611,-0.7609,-0.76,-0.7597,-0.7629,-0.7629,-0.7629,0,0,-0.7732,-0.7726,-0.7718,-0.7702,-0.7696,-0.7685,-0.7694,-0.7681,-0.7673,-0.7678,-0.7662,-0.7659,-0.7652,-0.7634,-0.7626,-0.7631,-0.76,-0.7609,-0.7608,-0.7607,-0.7598,-0.7595,-0.7592,-0.7628,-0.7628,-0.7628,0,0,-0.7709,-0.7702,-0.7687,-0.7681,-0.7672,-0.767,-0.7667,-0.7659,-0.7657,-0.7641,-0.7645,-0.7636,-0.7619,-0.7613,-0.7609,-0.7586,-0.7589,-0.7583,-0.7571,-0.7562,-0.7559,-0.7557,-0.7549,-0.7547,-0.7581,-0.7581,-0.7581,0,-0.7698,-0.768,-0.7679,-0.7666,-0.766,-0.7664,-0.765,-0.7644,-0.7633,-0.7629,-0.7634,-0.7613,-0.7608,-0.7591,-0.7585,-0.7581,-0.7578,-0.7583,-0.756,-0.7557,-0.7555,-0.7548,-0.7545,-0.758,-0.758,-0.758,-0.758,0,-0.7668,-0.7655,-0.7644,-0.7633,-0.7626,-0.7612,-0.7611,-0.7603,-0.7605,-0.7603,-0.7588,-0.7583,-0.7573,-0.7569,-0.757,-0.7551,-0.7554,-0.756,-0.7569,-0.7551,-0.7545,-0.7542,-0.7579,-0.7579,-0.7579,-0.758,0,0,-0.7636,-0.7626,-0.7622,-0.7618,-0.7609,-0.76,-0.7587,-0.7577,-0.7572,-0.7564,-0.7555,-0.754,-0.7546,-0.754,-0.7541,-0.7533,-0.7517,-0.754,-0.754,-0.7536,-0.7497,-0.7493,-0.749,-0.7519,-0.7519,-0.7518,-0.7498,0,-0.7612,-0.7589,-0.7589,-0.7569,-0.7558,-0.7563,-0.7552,-0.7547,-0.7545,-0.7537,-0.7535,-0.7525,-0.7532,-0.7529,-0.7522,-0.752,-0.7509,-0.7522,-0.7511,-0.751,-0.7512,-0.7486,-0.7482,-0.7463,-0.7495,-0.7495,-0.7494,0,-0.7581,-0.7573,-0.7551,-0.7545,-0.7541,-0.7531,-0.7523,-0.7514,-0.7509,-0.7508,-0.7503,-0.7505,-0.7494,-0.7504,-0.7489,-0.7498,-0.7493,-0.7492,-0.7491,-0.749,-0.7501,-0.7485,-0.7456,-0.7454,-0.749,-0.749,-0.7491,0,-0.7561,-0.7545,-0.753,-0.7526,-0.7519,-0.7512,-0.7509,-0.7504,-0.7499,-0.7492,-0.7488,-0.748,-0.7476,-0.747,-0.7471,-0.7478,-0.7456,-0.7466,-0.7456,-0.7456,-0.7451,-0.7451,-0.7422,-0.7448,-0.7448,-0.7448,-0.7448,0,-0.7535,-0.7521,-0.7521,-0.7512,-0.7498,-0.7499,-0.7485,-0.7483,-0.7478,-0.747,-0.7474,-0.7466,-0.7468,-0.746,-0.7461,-0.7449,-0.7447,-0.7447,-0.7447,-0.7446,-0.7446,-0.7443,-0.7445,-0.7448,-0.7448,-0.7448,-0.7448,0,-0.751,-0.7509,-0.7493,-0.7488,-0.7487,-0.7477,-0.7473,-0.7465,-0.7464,-0.7453,-0.7451,-0.745,-0.7441,-0.7442,-0.7432,-0.7433,-0.7418,-0.742,-0.742,-0.742,-0.7411,-0.7412,-0.7378,-0.7374,-0.7403,-0.7403,-0.7403,0,-0.7493,-0.7483,-0.7477,-0.7471,-0.7468,-0.7459,-0.7454,-0.7455,-0.7449,-0.7443,-0.7436,-0.7428,-0.7421,-0.7408,-0.7407,-0.74,-0.7402,-0.739,-0.74,-0.74,-0.7402,-0.7403,-0.7402,-0.7388,-0.7388,-0.7388,-0.7388,0,-0.7463,-0.7464,-0.7455,-0.7448,-0.7441,-0.7435,-0.7429,-0.7425,-0.7426,-0.742,-0.7411,-0.7406,-0.7396,-0.7389,-0.7382,-0.738,-0.7384,-0.7384,-0.7382,-0.7381,-0.7382,-0.7382,-0.7415,-0.7385,-0.7385,-0.7386,-0.7386,-0.7386,-0.7442,-0.7434,-0.7429,-0.742,-0.7416,-0.7412,-0.7404,-0.7403,-0.7395,-0.7388,-0.7389,-0.738,-0.7376,-0.7368,-0.7365,-0.7358,-0.7362,-0.7358,-0.7357,-0.7357,-0.7356,-0.7383,-0.7357,-0.7357,-0.7357,-0.7357,-0.7357,0,-0.7413,-0.7411,-0.7403,-0.7395,-0.7389,-0.7393,-0.7388,-0.7382,-0.7374,-0.737,-0.7363,-0.7354,-0.7347,-0.7346,-0.7339,-0.7334,-0.7336,-0.7332,-0.7332,-0.7332,-0.7352,-0.7355,-0.7331,-0.7331,-0.7331,-0.7331,-0.7331,-0.7331,-0.7398,-0.7384,-0.7385,-0.737,-0.7368,-0.7358,-0.7355,-0.7351,-0.7348,-0.7337,-0.7331,-0.7331,-0.7328,-0.7321,-0.7315,-0.7315,-0.7313,-0.7309,-0.7309,-0.7328,-0.7331,-0.7333,-0.7336,-0.7308,-0.7308,-0.729,-0.729,-0.729]}]]